Flag for Spain Weather past 2 weeks in Alicante, Spain

Now
45 °F

Passing clouds.


Feels Like: 40 °F
Forecast: 35 / 52 °F
Wind: 8 mph from North

Location: Alicante / El Altet

Current Time: Dec 29, 2014 at 7:08:32 AM

Latest Report: Dec 29, 2014 at 6:30 AM


Visibility: N/A

Pressure: 30.18 "Hg

Humidity: 42%

Dew point: 23 °F

Location of AlicanteLocation

Historic Weather in Alicante — Graph

°F

Alicante temperature yesterday

Maximum temperature yesterday: 64 °F (at 1:30 PM)
Minimum temperature yesterday: 48 °F (at 10:00 PM)
Average temperature yesterday: 57 °F

Past Weeks' High & Low Weather Summary

 TemperatureHumidityPressure
High70 °F (Dec 18, 2:00 PM)100% (Dec 14, 5:00 PM)30.54 "Hg (Dec 14, 5:00 PM)
Low41 °F (Dec 23, 7:00 AM)34% (Dec 28, 2:00 AM)29.86 "Hg (Dec 14, 2:00 PM)
Average54 °F75%30.25 "Hg
* Reported Dec 14 6:00 AM — Dec 29 6:00 AM, Alicante, Weather by CustomWeather, © 2014

Note: Actual official high and low records may vary slightly from our data, if they occured in-between our weather recording intervals... More about our weather records

Advertising

Alicante weather history for previous 24 hours

 ConditionsComfort  
Time TempWeatherWind HumidityBarometerVisibility
6:00 AM
Dec 29
43 °FPassing clouds.9 mph49%30.15 "HgN/A
5:30 AM43 °FPassing clouds.6 mph49%30.15 "HgN/A
5:00 AM43 °FPassing clouds.7 mph53%30.15 "HgN/A
4:30 AM43 °FPassing clouds.9 mph53%30.15 "HgN/A
3:30 AM43 °FPassing clouds.3 mph53%30.12 "HgN/A
3:00 AM45 °FPassing clouds.5 mph46%30.12 "HgN/A
2:30 AM41 °FPassing clouds.No wind57%30.12 "HgN/A
2:00 AM43 °FPassing clouds.2 mph57%30.12 "HgN/A
1:30 AM43 °FPassing clouds.2 mph57%30.09 "HgN/A
1:00 AM46 °FPassing clouds.12 mph46%30.09 "HgN/A
12:30 AM45 °FPassing clouds.8 mph57%30.09 "HgN/A
12:00 AM48 °FPassing clouds.8 mph46%30.12 "HgN/A
11:30 PM
Dec 28
48 °FPassing clouds.9 mph50%30.12 "HgN/A
11:00 PM50 °FPassing clouds.13 mph47%30.09 "HgN/A
10:30 PM50 °FPassing clouds.9 mph58%30.09 "HgN/A
10:00 PM48 °FPassing clouds.3 mph62%30.09 "HgN/A
9:30 PM50 °FPassing clouds.3 mph58%30.09 "HgN/A
9:00 PM52 °FPassing clouds.7 mph50%30.07 "HgN/A
8:30 PM54 °FPassing clouds.8 mph44%30.07 "HgN/A
8:00 PM52 °FPassing clouds.5 mph58%30.07 "HgN/A
7:30 PM54 °FPassing clouds.5 mph54%30.07 "HgN/A
7:00 PM52 °FPassing clouds.12 mph62%30.04 "HgN/A
6:30 PM57 °FPassing clouds.8 mph48%30.04 "HgN/A
6:00 PM59 °FPassing clouds.13 mph42%30.01 "HgN/A
5:30 PM59 °FPassing clouds.14 mph42%30.01 "HgN/A
5:00 PM59 °FPassing clouds.12 mph39%29.98 "HgN/A
4:30 PM61 °FPassing clouds.14 mph36%29.98 "HgN/A
4:00 PM61 °FPassing clouds.20 mph39%29.95 "HgN/A
3:30 PM63 °FPassing clouds.25 mph37%29.95 "HgN/A
3:00 PM63 °FPassing clouds.26 mph42%29.92 "HgN/A
2:30 PM64 °FPassing clouds.29 mph40%29.92 "HgN/A
2:00 PM64 °FPassing clouds.28 mph43%29.92 "HgN/A
1:30 PM64 °FPassing clouds.29 mph43%29.92 "HgN/A
1:00 PM63 °FPassing clouds.28 mph45%29.95 "HgN/A
12:30 PM63 °FPassing clouds.21 mph45%29.95 "HgN/A
12:00 PM61 °FPassing clouds.23 mph45%29.95 "HgN/A
11:30 AM61 °FPassing clouds.16 mph45%29.95 "HgN/A
11:00 AM59 °FPassing clouds.15 mph48%29.98 "HgN/A
10:30 AM57 °FPassing clouds.10 mph51%29.95 "HgN/A
10:00 AM57 °FSunny.1 mph51%29.95 "Hg10 mi
9:30 AM57 °FPassing clouds.6 mph51%29.95 "HgN/A
9:00 AM57 °FPassing clouds.1 mph48%29.95 "HgN/A
8:30 AM55 °FPassing clouds.6 mph55%29.92 "HgN/A
8:00 AM55 °FPassing clouds.1 mph55%29.92 "HgN/A
7:30 AM55 °FPassing clouds.7 mph51%29.92 "HgN/A
7:00 AM50 °FClear.6 mph62%29.92 "Hg10 mi
Weather by CustomWeather, © 2014

See weather overviewHow to use our weather pages